Todos
Scone Airport (Scone, New South Wales) NSO Condições meteorológicas
|
Scone, New South Wales (NSO / YSCO)
Céu Limpo
Vento fraco |
|
5 °C |
NSO Previsão da área de terminais
| Here is the undecoded forecast: 2026/09/05 18:04 YSCO 051804Z 0520/0608 25010KT CAVOK FM060500 VRB03KT CAVOK RMK FM052000 MOD TURB BLW 5000FT TL052300 T 12 15 20 22 Q 1017 1019 1017 1017 |
Histórico recente de METAR NSO
| Date | Time (AEST) | Flight Rules | Wind Dir. | Speed | Type | Height AGL (ft) | Visibility | Temp (°C) | Temp (°F) | Dew Point (°C) | Dew Point (°F) | Rel. Humid. | Pressure | Density Altitude | Remarks |
|---|---|---|---|---|---|---|---|---|---|---|---|---|---|---|---|
| 07-Set | 03:00 | VFR | 290° | 3 kt | 10000 meters | 5° | 41° | 4° | 39° | 93% | 1022 mb | -715 ft | |||
| 07-Set | 02:00 | VFR | Calm | 10000 meters | 5° | 41° | 4° | 39° | 93% | 1022 mb | -715 ft | ||||
| 07-Set | 01:00 | VFR | Calm | 10000 meters | 5° | 41° | 4° | 39° | 93% | 1022 mb | -715 ft | ||||
| 07-Set | 00:00 | VFR | 300° | 4 kt | 10000 meters | 7° | 44° | 5° | 41° | 87% | 1022 mb | -475 ft | |||
| 06-Set | 23:00 | VFR | Calm | 10000 meters | 8° | 46° | 6° | 42° | 87% | 1021 mb | -325 ft | ||||
| 06-Set | 22:00 | VFR | 360° | 1 kt | 10000 meters | 9° | 48° | 6° | 42° | 81% | 1021 mb | -205 ft | |||
| 06-Set | 21:00 | VFR | 90° | 3 kt | 10000 meters | 10° | 50° | 7° | 44° | 82% | 1021 mb | -85 ft | |||
| 06-Set | 20:00 | VFR | 360° | 5 kt | 10000 meters | 12° | 53° | 7° | 44° | 71% | 1020 mb | 184 ft | |||
| 06-Set | 19:00 | VFR | Calm | 10000 meters | 13° | 55° | 7° | 44° | 67% | 1019 mb | 334 ft | ||||
| 06-Set | 18:00 | VFR | 320° | 5 kt | 10000 meters | 18° | 64° | 7° | 44° | 49% | 1018 mb | 963 ft | |||
| 06-Set | 17:00 | VFR | 280° | 3 kt | 10000 meters | 21° | 69° | 8° | 46° | 43% | 1018 mb | 1.323 ft | |||
| 06-Set | 16:00 | VFR | 280° | 8 kt | 10000 meters | 22° | 71° | 6° | 42° | 35% | 1017 mb | 1.473 ft | |||
| 06-Set | 15:00 | VFR | 270° | 7 kt | 10000 meters | 22° | 71° | 6° | 42° | 35% | 1017 mb | 1.473 ft | |||
| 06-Set | 14:00 | VFR | 290° | 9 kt | 10000 meters | 22° | 71° | 7° | 44° | 38% | 1017 mb | 1.473 ft | |||
| 06-Set | 13:00 | VFR | 280° | 9 kt | 10000 meters | 21° | 69° | 8° | 46° | 43% | 1017 mb | 1.353 ft | |||
| 06-Set | 12:00 | VFR | 280° | 11 kt | 10000 meters | 20° | 68° | 6° | 42° | 40% | 1018 mb | 1.203 ft | |||
| 06-Set | 11:00 | VFR | 280° | 11 kt | 10000 meters | 19° | 66° | 6° | 42° | 43% | 1018 mb | 1.083 ft | |||
| 06-Set | 10:00 | VFR | 280° | 11 kt | 10000 meters | 18° | 64° | 7° | 44° | 49% | 1019 mb | 934 ft | |||
| 06-Set | 09:00 | VFR | 290° | 12 kt | 10000 meters | 16° | 60° | 6° | 42° | 51% | 1019 mb | 694 ft | |||
| 06-Set | 08:00 | VFR | 290° | 6 kt | 10000 meters | 15° | 59° | 5° | 41° | 51% | 1019 mb | 574 ft | |||
| 06-Set | 07:00 | VFR | 340° | 7 kt | 10000 meters | 14° | 57° | 5° | 41° | 55% | 1017 mb | 513 ft | |||
| 06-Set | 06:00 | VFR | 340° | 6 kt | 10000 meters | 13° | 55° | 6° | 42° | 62% | 1017 mb | 393 ft | |||
| 06-Set | 05:00 | VFR | 270° | 8 kt | 10000 meters | 15° | 59° | 7° | 44° | 59% | 1016 mb | 663 ft | |||
| 06-Set | 04:00 | VFR | 300° | 8 kt | 10000 meters | 16° | 60° | 9° | 48° | 63% | 1015 mb | 812 ft |
Entrar
| Seu navegador não suporta. atualize seu navegador |
